Tracking 25656 objects as of 21-May-2022
HD Live streaming from Space Station
objects crossing your sky now

ONEWEB-0283

Track ONEWEB-0283 now!
10-day predictions
ONEWEB-0283 is classified as:


NORAD ID: 49001
Int'l Code: 2021-061AL
Perigee: 1,203.4 km
Apogee: 1,206.3 km
Inclination: 87.9 °
Period: 109.4 minutes
Semi major axis: 7575 km
RCS: Unknown
Launch date: July 1, 2021
Source: United Kingdom (UK)
Launch site: VOSTOCHNY COSMODROME (VOSTO)
aabbcc
Your satellite tracking list
Your tracking list is empty




NASA's NSSDC Master Catalog

Two Line Element Set (TLE):
1 49001U 21060AL  22141.58335648 -.00004549  00000-0 -11937-1 0  9991
2 49001  87.9109 164.9181 0001907  78.8961 215.6747 13.16601939  1301
Source of the keplerian elements: AFSPC